Main page
Satellite images Climate Cyclones Lightning AirportsFAQ Languages Contact Newsletter About
Weather : Europe Africa North America South America Asia Australia-Oceania Others

kota-bharu-my, Kota Bharu, Sultan Ismail Petra Airport

48615

latitude: , longitude: Malaysia, elevation: 06-10N m


METAR: WMKC 162300Z 18006KT 100V230 1500 +RA FEW007 SCT019 OVC170 24/23 Q1012 RETS